Location: Unspecified
(0.0000°N, 0.0000°E)
Time: 02:47:19
(UTC+02:00)

Altair - All Passes

Search period start: 01 July 2016 00:00
Search period end: 11 July 2016 00:00
Orbit: 1502 x 1682 km, 47.2° (Epoch: 29 June)

Date Brightness Start Highest point End Pass type
(mag) Time Alt. Az. Time Alt. Az. Time Alt. Az.
01 Jul - 01:04:47 10° S 01:11:33 23° SE 01:18:18 10° E night (unlit)
01 Jul - 03:07:00 10° SW 03:16:07 71° NW 03:25:26 10° NNE visible
01 Jul - 05:18:10 10° WNW 05:21:16 12° NW 05:24:24 10° NNW visible
01 Jul - 13:51:50 10° NNW 14:01:37 53° NE 14:11:17 10° SE daylight
01 Jul - 15:57:26 10° WNW 16:06:18 35° SW 16:15:05 10° SSE daylight
02 Jul - 00:40:10 10° S 00:46:21 20° SE 00:52:32 10° E night (unlit)
02 Jul - 02:41:50 10° SW 02:51:00 79° NW 03:00:20 10° NE visible
02 Jul - 04:51:41 10° WNW 04:56:00 14° NW 05:00:23 10° NNW visible
02 Jul - 13:26:49 10° NNW 13:36:25 47° NE 13:45:56 10° ESE daylight
02 Jul - 15:31:55 10° WNW 15:41:06 39° SW 15:50:11 10° SSE daylight
03 Jul - 00:15:38 10° S 00:21:09 17° SE 00:26:39 10° E night (unlit)
03 Jul - 02:16:41 10° SW 02:25:53 88° NW 02:35:12 10° NE visible
03 Jul - 04:25:33 10° W 04:30:45 16° NW 04:36:03 10° N visible
03 Jul - 13:01:50 10° NNW 13:11:13 42° NE 13:20:31 10° ESE daylight
03 Jul - 15:06:28 10° WNW 15:15:55 44° SW 15:25:15 10° SSE daylight
03 Jul - 23:51:15 10° SSE 23:55:56 15° SE 00:00:34 10° ESE night (unlit)
04 Jul - 01:51:34 10° SW 02:00:46 84° SE 02:10:03 10° NE visible
04 Jul - 03:59:37 10° W 04:05:31 19° NW 04:11:32 10° N visible
04 Jul - 12:36:54 10° NNW 12:46:01 38° NE 12:55:05 10° ESE daylight
04 Jul - 14:41:03 10° WNW 14:50:43 50° SW 15:00:17 10° SSE daylight
04 Jul - 23:27:08 10° SSE 23:30:41 13° SE 23:34:13 10° ESE night (unlit)
05 Jul - 01:26:29 10° SW 01:35:39 75° SE 01:44:52 10° NE night (unlit)
05 Jul - 03:33:49 10° W 03:40:19 21° NW 03:46:55 10° N visible
05 Jul - 12:12:00 10° NNW 12:20:48 34° NE 12:29:34 10° ESE daylight
05 Jul - 14:15:42 10° NW 14:25:32 55° SW 14:35:17 10° SSE daylight
05 Jul - 23:03:47 10° SSE 23:05:25 11° SE 23:07:03 10° SE night (unlit)
06 Jul - 01:01:25 10° SSW 01:10:32 67° SE 01:19:40 10° NE night (unlit)
06 Jul - 03:08:08 10° W 03:15:06 24° NW 03:22:13 10° N visible
06 Jul - 11:47:08 10° N 11:55:35 30° NE 12:04:00 10° ESE daylight
06 Jul - 13:50:22 10° NW 14:00:21 62° SW 14:10:15 10° SSE daylight
06 Jul - 16:04:08 10° SW 16:05:47 10° SW 16:07:25 10° SW daylight
07 Jul - 00:36:23 10° SSW 00:45:25 60° SE 00:54:25 10° NE night (unlit)
07 Jul - 02:42:32 10° WSW 02:49:56 27° NW 02:57:27 10° N visible
07 Jul - 11:22:21 10° N 11:30:21 27° NE 11:38:21 10° E daylight
07 Jul - 13:25:06 10° NW 13:35:10 69° SW 13:45:11 10° SSE daylight
07 Jul - 15:36:40 10° WSW 15:40:28 12° SW 15:44:15 10° SSW daylight
08 Jul - 00:11:24 10° SSW 00:20:17 53° SE 00:29:08 10° NE night (unlit)
08 Jul - 02:17:00 10° WSW 02:24:46 31° NW 02:32:38 10° N visible
08 Jul - 10:57:35 10° N 11:05:06 23° NE 11:12:38 10° E daylight
08 Jul - 12:59:51 10° NW 13:09:59 77° SW 13:20:05 10° SE daylight
08 Jul - 15:10:08 10° WSW 15:15:10 15° SW 15:20:10 10° SSW daylight
08 Jul - 23:46:26 10° SSW 23:55:09 47° SE 00:03:49 10° ENE night (unlit)
09 Jul - 01:51:32 10° WSW 01:59:36 35° NW 02:07:47 10° NNE visible
09 Jul - 10:32:55 10° N 10:39:51 21° NE 10:46:48 10° E daylight
09 Jul - 12:34:38 10° NW 12:44:48 84° SW 12:54:58 10° SE daylight
09 Jul - 14:43:55 10° W 14:49:53 17° SW 14:55:49 10° S daylight
09 Jul - 23:21:29 10° SSW 23:30:01 42° SE 23:38:28 10° ENE night (unlit)
10 Jul - 01:26:06 10° WSW 01:34:27 40° NW 01:42:53 10° NNE visible
10 Jul - 10:08:21 10° N 10:14:36 18° NE 10:20:51 10° E daylight
10 Jul - 12:09:28 10° NW 12:19:37 88° NE 12:29:48 10° SE daylight
10 Jul - 14:17:55 10° W 14:24:36 20° SW 14:31:18 10° S daylight
10 Jul - 22:56:34 10° SSW 23:04:53 37° SE 23:13:04 10° ENE visible
